Powrót do katalogu

STARLINK-36217

AktywnyŁącznośćVLEO
NORAD 67120·PAYLOAD·🇺🇸 United States

Wystrzelony Dec 15, 2025 z Cape Canaveral Space Force Station

Loading…

Następne Przeloty (najbliższe 24 godziny)

TLE

ŚwieżeSource: CelesTrak SupGP

Epoka: Sep 14, 2026, 21:41 UTC

1 67120C 25299U   26257.90395833 -.00022955  00000+0 -83128-3 0  2571
2 67120  43.0009 180.7222 0001274 265.9881 340.0560 15.27595511    19

Śledź STARLINK-36217 w czasie rzeczywistym z AllMySat

Download on the App Store